COSMOS 2251 DEB, 33906

Orbit data source: Space-Track

COSMOS 2251 DEB, 33906 is space debris in LEO originally from a launch on Wed, 16 Jun 1993 UTC launched from the Plesetsk Missile And Space Complex (PKMTR). The debris from Iridium 33, an American commercial communications satellite, has been tracked extensively since its accidental collision with the defunct Russian satellite Cosmos 2251 in 2009. This event, occurring at high speed in low Earth orbit (LEO), generated thousands of pieces of space debris, significantly increasing the risk of further collisions. The Iridium 33 debris cloud has impacted space traffic management and orbital debris mitigation strategies, making it a subject of ongoing study in space situational awareness.

Loading next visibility...
Identifier
33906, 1993-036DK
Orbit
LEO
Country
Flag of CISCIS
Related business
Manufacturer
Unknown
Mission
Spacecraft
Bus & Motor
Unknown
Mass
Unknown
Launch date (UTC)
1993-06-16 (33 years ago)
Launch vehicle
Unknown
Launch site
Plesetsk Missile And Space Complex (PKMTR)
Object type
Payload
Rocket body
Debris
Shape & HBR
Unknown shape, 0.1 m
Radar Cross Section
Small (<0.1 m²)

Expand to show TLE details & history
Last TLE update: 15 hours ago

TLE from 15 hours ago
0 COSMOS 2251 DEB
1 33906U 93036DK  25352.32112285  .00007336  00000-0  16150-2 0  9997
2 33906  74.0301 310.8668 0036824 339.4571 182.9403 14.57184250880892
Epoch: 2025-12-18T07:42Z
TLE epoch observation values (Epoch: 2025-12-18T07:42:25.014Z)
Latitude
16.91507°
Longitude
-76.88168°
Altitude
730.333 km
Speed
7.478 km/s
True Right ascension
08h 23m 36s
True Declination
16° 49' 09"
Sunlit
Object was in full shadow at epoch
Visualization orbit readout
Latitude
Unknown
Longitude
Unknown
Altitude
Unknown
Speed
Unknown
Apparent Right ascension
Unknown
Apparent Declination
Unknown
Sunlit
N/A
Visualization observer readout
Local Sidereal Time
21:03:56
Azimuth
Unknown
Elevation
Unknown
Doppler factor
Unknown
Orbital elements
Apogee altitude
725.946 km
Perigee altitude
673.817 km
Semi-major axis
7,078.019 km
Eccentricity
0.00368
Inclination
74.0301°
RAAN
310.8668°
Arg. of periapsis
339.4571°
True anomaly
182.91875°
Mean anomaly
182.9403°
Eccentric anomaly
182.92952°
Mean motion
3.64482 °/min
Orbital period
98.77 mins
BSTAR
0.001615
Loading maneuver chart data...
Computing Atmospheric mass density...

Documentation

Showing up to 5 results
|